AirNav   Air Wisconsin Up To $57,000 Bonus
 
 973 users online  

WN29 Blue Ribbon Airport
Sequim, Washington, USA

GOING TO SEQUIM?


FAA INFORMATION EFFECTIVE 31 DECEMBER 2020

Location

FAA Identifier: WN29
Lat/Long: 48-07-48.9000N 123-12-19.8750W
48-07.815000N 123-12.331250W
48.1302500,-123.2055208
(estimated)
Elevation: 103 ft. / 31 m (estimated)
Variation: 21E (1985)
From city: 5 miles NW of SEQUIM, WA
Time zone: UTC -8 (UTC -7 during Daylight Saving Time)
Zip code: 98382

Airport Operations

Airport use: Private use. Permission required prior to landing
Activation date: 01/1983
Control tower: no
ARTCC: SEATTLE CENTER
FSS: SEATTLE FLIGHT SERVICE STATION
Attendance: UNATNDD
Wind indicator: yes
Segmented circle: no

Airport Communications

WX AWOS-3P at NOW (8 nm W): 118.325 (360-457-7529)
WX ASOS at CLM (12 nm W): 135.175 (360-457-1070)
WX AWOS-3P at 0S9 (16 nm E): 119.025 (360-379-1199)

Nearby radio navigation aids

VOR radial/distance  VOR name  Freq  Var
CVVr231/20.4PENN COVE VOR/DME117.2019E
YYJr146/37.5VICTORIA VOR/DME113.7017E
PAEr269/39.3PAINE VOR/DME110.6020E

 
NDB name  Hdg/Dist  Freq  Var  ID
EDIZ HOOK077/7.933817ENOW -. --- .--
FRIDAY HARBOR181/24.028417EFHR ..-. .... .-.
SKAGIT/BAY VIEW221/37.424016EBVS -... ...- ...

Airport Services

Runway Information

Runway 7/25

Dimensions: 1961 x 60 ft. / 598 x 18 m
Surface: turf, in good condition
RUNWAY 7  RUNWAY 25
Latitude: 48-07.815333N48-07.814667N
Longitude: 123-12.572167W123-12.090333W
Elevation: 103.0 ft.103.0 ft.
Traffic pattern: leftleft
Touchdown point: yes, no lightsyes, no lights

Airport Ownership and Management from official FAA records

Ownership: Privately-owned
Owner: BLUE RIBBON FARMS
PO BOX 3141
SEQUIM, WA 98382
Phone 3017882771
PROPERTY OWNERS ASSN., INC.
Manager: DAVID WOODCOCK
402 GREYWOLF ROAD
SEQUIM, WA 98382
Phone 3017882771

Airport Operational Statistics

Aircraft based on the field: 11
Single engine airplanes: 10
Multi engine airplanes: 1
    

Additional Remarks

WILDLIFE (DEER) ON AND IN VCNTY OF ARPT, EAGLES AND SEAGULLS ALSO ON AND IN VCNTY OF ARPT.
FOR CD CTC SEATTLE ARTCC AT 253-351-3694.

Instrument Procedures

There are no published instrument procedures at WN29.

Some nearby airports with instrument procedures:

KNOW - Port Angeles Coast Guard Air Station Airport (8 nm W)
KCLM - William R Fairchild International Airport (12 nm W)
0S9 - Jefferson County International Airport (16 nm E)
KOKH - AJ Eisenberg Airport (22 nm E)
KFHR - Friday Harbor Airport (25 nm N)
 
Loc | Ops | Rwys | IFR | FBO | Links
Com | Nav | Svcs | Stats | Notes
Area around WN29 (Blue Ribbon Airport)
 
Road maps at: MapQuest Bing Google
 
Aerial photo
WARNING: Photo may not be current or correct
Aerial photo of WN29 (Blue Ribbon Airport)
Photo by Dave Woodcock, Greywolf Aerial Photography www.greywolfphotography.com
Taken in June 2005

Do you have a better or more recent aerial photo of Blue Ribbon Airport that you would like to share? If so, please send us your photo.

 
Sectional chart

 
Airport distance calculator
Flying to Blue Ribbon Airport? Find the distance to fly.

From to WN29

Sunrise and sunset
Times for 16-Jan-2021
 Local
(UTC-8)
 Zulu
(UTC)
Morning civil twilight07:2315:23
Sunrise07:5915:59
Sunset16:4700:47
Evening civil twilight17:2201:22

Current date and time
Zulu (UTC)  17-Jan-2021 01:08:47
Local (UTC-8)  16-Jan-2021 17:08:47
 
METAR
KCLM 
12nm W 
170053Z AUTO 10005KT 8SM OVC100 07/05 A3033 RMK AO2 SLP272 T00670050
CWQK 
15nm NW 
170000Z AUTO 09010KT 07/ RMK AO1 SLP285 T0071 58005
KNOW 
16nm W 
170055Z AUTO 09010KT 10SM OVC100 07/06 A3034 RMK AO2 T00700060
K0S9 
16nm E 
161335Z AUTO 00000KT 2 1/2SM BR OVC002 06/06 A3042 RMK AO2
CWLM 
18nm N 
170000Z AUTO 13002KT 07/05 RMK AO1 SLP289 T00690053 55004
CYWH 
18nm N 
170000Z 13003KT 110V170 15SM FEW015 BKN080 OVC100 08/05 A3038 RMK SC1AC4AC3 SLP290
CWPF 
19nm NW 
170045Z AUTO 02001KT 07/05 RMK AO1 SLP274 T00740050 58011
CWYJ 
19nm N 
170000Z AUTO 00000KT 07/06 RMK AO1 SLP292 T00700059 55004
TAF
KCLM 
12nm W 
161720Z 1618/1718 VRB03KT P6SM OVC007 TEMPO 1618/1619 OVC003 FM162100 12003KT P6SM OVC060 FM170300 VRB03KT P6SM -RA OVC030 FM170900 23003KT 5SM BR OVC009
CYWH 
18nm N 
162019Z 1620/1705 01006KT P6SM SCT020 OVC100 TEMPO 1620/1624 SCT005 BKN015 BECMG 1622/1624 06006KT FM170000 06006KT P6SM SCT008 OVC060 TEMPO 1700/1705 5SM -RA BR BKN008 RMK NXT FCST BY 170000Z
NOTAMs
Click for the latest NOTAMs
NOTAMs are issued by the DoD/FAA and will open in a separate window not controlled by AirNav.

 

 
 

Would you like to see your business listed on this page?

 If your business provides an interesting product or service to pilots, flight crews, aircraft, or users of the Blue Ribbon Airport, you should consider listing it here.  To start the listing process, click on the button below
 
Add a business
 

Other Pages about Blue Ribbon Airport

www.blueribbonfarmsassoc.com
 
Update a link
 
Copyright © AirNav, LLC. All rights reserved. Privacy Policy  Contact